Ouarzazate, Morocco

9:48 AM WEST on August 20, 2017 (GMT +0100)
Ouarzazate

Weather History for GMMZ - November, 2012

Change the Weather History Date:

Friday, November 2, 2012

  Actual Average Record
Temperature  
Mean Temperature 68 °F -  
Max Temperature 82 °F 69 °F - ()
Min Temperature 53 °F 43 °F - ()
Cooling Degree Days 2    
Growing Degree Days 18 (Base 50)    
Moisture  
Dew Point 46 °F    
Average Humidity 43    
Maximum Humidity 77    
Minimum Humidity 18    
Precipitation  
Precipitation 0.00 in 0.02 in - ()
Sea Level Pressure  
Sea Level Pressure 30.13 in    
Wind  
Wind Speed 2 mph ()    
Max Wind Speed 7 mph    
Max Gust Speed -    
Visibility 7.6 miles    
Events      
T = Trace of Precipitation, MM = Missing Value Source: Averaged Metar Reports

Daily Weather History Graph

Daily Weather History Graph

Search for Another Location

Airport or City:

Trip Planner

Search our weather history database for the weather conditions in past years. The results will help you decide how hot, cold, wet, or windy it might be!

Date:

Astronomy

Nov. 02, 2012 Rise Set
Actual Time 6:43 AM WET 5:38 PM WET
Civil Twilight 6:18 AM WET 6:03 PM WET
Nautical Twilight 5:50 AM WET 6:31 PM WET
Astronomical Twilight 5:21 AM WET 7:00 PM WET
Moon 8:21 PM WET (11/2) 9:45 AM WET (11/2)
Length of Visible Light 11h 44m
Length of Day
10h 54m
Waning Gibbous, 88% of the Moon is Illuminated
Nov 2
Waning Gibbous
Nov 7
Last Quarter
Nov 13
New
Nov 20
First Quarter
Nov 28
Full

Hourly Weather History & Observations

Time (WET) Temp. Dew Point Humidity Pressure Visibility Wind Dir Wind Speed Gust Speed Precip Events Conditions
12:00 AM 63 °F 48 °F 48%  in 12 mi West 2.3 mph - -   Scattered Clouds
12:00 AM 62.6 °F 48.2 °F 59% 30.09 in 6.2 mi Variable 2.3 mph - N/A   Partly Cloudy
1:00 AM 60.8 °F 48.2 °F 63% 30.09 in 6.2 mi Calm Calm - N/A   Partly Cloudy
2:00 AM 60.8 °F 46.4 °F 59% 30.09 in 6.2 mi Variable 1.2 mph - N/A   Partly Cloudy
3:00 AM 62 °F 47 °F 49%  in 12 mi West 3.5 mph - -   Scattered Clouds
3:00 AM 60.8 °F 48.2 °F 63% 30.09 in 6.2 mi Variable 3.5 mph - N/A   Partly Cloudy
4:00 AM 60.8 °F 32.0 °F 34% 30.09 in 6.2 mi WSW 4.6 mph - N/A   Partly Cloudy
5:00 AM 59.0 °F 48.2 °F 67% 30.09 in 6.2 mi WNW 5.8 mph - N/A   Partly Cloudy
6:00 AM 57 °F 47 °F 60%  in 12 mi West 3.5 mph - -   Scattered Clouds
6:00 AM 57.2 °F 46.4 °F 67% 3.51 in 6.2 mi Variable 2.3 mph - N/A   Partly Cloudy
7:00 AM 53.6 °F 46.4 °F 77% 30.12 in 6.2 mi Variable 1.2 mph - N/A   Partly Cloudy
8:00 AM 59.0 °F 46.4 °F 63% 30.15 in 6.2 mi Calm Calm - N/A   Partly Cloudy
9:00 AM 64 °F 48 °F 46%  in 12 mi Calm Calm - -   Scattered Clouds
9:00 AM 64.4 °F 48.2 °F 56% 30.18 in 6.2 mi Calm Calm - N/A   Partly Cloudy
10:00 AM 68.0 °F 48.2 °F 49% 30.21 in 6.2 mi Variable 1.2 mph - N/A   Partly Cloudy
11:00 AM 71.6 °F 48.2 °F 43% 30.18 in 6.2 mi Variable 2.3 mph - N/A   Scattered Clouds
12:00 PM 76 °F 46 °F 24%  in 12 mi NE 1.2 mph - -   Scattered Clouds
12:00 PM 75.2 °F 46.4 °F 36% 30.18 in 6.2 mi Variable 1.2 mph - N/A   Partly Cloudy
1:00 PM 77.0 °F 44.6 °F 32% 30.15 in 6.2 mi Variable 1.2 mph - N/A   Partly Cloudy
2:00 PM 77.0 °F 44.6 °F 32% 30.09 in 6.2 mi Variable 2.3 mph - N/A   Partly Cloudy
3:00 PM 80 °F 45 °F 19%  in 12 mi ESE 1.2 mph - -   Scattered Clouds
3:00 PM 80.6 °F 44.6 °F 28% 30.09 in 6.2 mi Variable 1.2 mph - N/A   Partly Cloudy
4:00 PM 82.4 °F 44.6 °F 26% 30.09 in 6.2 mi Variable 1.2 mph - N/A   Partly Cloudy
5:00 PM 80.6 °F 44.6 °F 28% 30.09 in 6.2 mi Variable 1.2 mph - N/A   Scattered Clouds
6:00 PM 80 °F 44 °F 18%  in 12 mi Calm Calm - -   Scattered Clouds
6:00 PM 80.6 °F 44.6 °F 28% 30.12 in 6.2 mi Calm Calm - N/A   Scattered Clouds
7:00 PM 77.0 °F 46.4 °F 34% 30.12 in 6.2 mi NW 6.9 mph - N/A   Scattered Clouds
8:00 PM 75.2 °F 46.4 °F 36% 30.15 in 6.2 mi Variable 3.5 mph - N/A   Scattered Clouds
9:00 PM 74 °F 46 °F 26%  in 12 mi ESE 1.2 mph - -   Scattered Clouds
9:00 PM 75.2 °F 46.4 °F 36% 30.15 in 6.2 mi Variable 1.2 mph - N/A   Scattered Clouds
10:00 PM 73.4 °F 46.4 °F 38% 30.18 in 6.2 mi West 6.9 mph - N/A   Scattered Clouds
11:00 PM 71.6 °F 48.2 °F 43% 30.18 in 6.2 mi SW 5.8 mph - N/A   Partly Cloudy